Home > Weather > Bad Mergentheim > Past weeks

Flag for Germany Past Weather in Bad Mergentheim, Baden-Württemberg, Germany — Yesterday and Last 2 Weeks

Now
59 °F

Passing clouds.


Feels Like: 57 °F
Forecast: 53 / 71 °F
Wind: 9 mph from Southwest

Location: Niederstetten

Current Time: May 30, 2016 at 10:22:18 PM

Latest Report: May 30, 2016 at 9:20 PM


Visibility: N/A

Pressure: 29.77 "Hg

Humidity: 72%

Dew Point: 50 °F

Location of Bad MergentheimLocation

Past Weather in Bad Mergentheim — Graph

°F

Bad Mergentheim Temperature Yesterday

Maximum temperature yesterday: 73 °F (at 1:20 PM)
Minimum temperature yesterday: 55 °F (at 1:20 AM)
Average temperature yesterday: 62 °F

High & Low Weather Summary for the Past Weeks

 TemperatureHumidityPressure
High77 °F (May 22, 1:20 PM)100% (May 23, 11:20 PM)30.15 "Hg (May 23, 11:20 PM)
Low39 °F (May 16, 7:20 AM)38% (May 22, 12:20 PM)29.59 "Hg (May 29, 7:20 PM)
Average56 °F78%29.94 "Hg
* Reported May 15 8:20 PM — May 30 8:20 PM, Bad Mergentheim, Weather by CustomWeather, © 2016

Note: Actual official high and low records may vary slightly from our data, if they occured in-between our weather recording intervals... More about our weather records

Advertising

Bad Mergentheim Weather History for the Previous 24 Hours

Scroll right to see more
 ConditionsComfort  
Time TempWeatherWind HumidityBarometerVisibility
8:20 PM
Mon, May 30
61 °FPassing clouds.8 mph72%29.74 "HgN/A
7:20 PM63 °FScattered clouds.8 mph73%29.74 "HgN/A
6:20 PM63 °FPartly sunny.15 mph73%29.71 "HgN/A
5:20 PM64 °FScattered clouds.13 mph73%29.71 "HgN/A
4:20 PM64 °FScattered clouds.12 mph73%29.71 "HgN/A
3:20 PM63 °FScattered showers. Partly sunny.7 mph83%29.71 "HgN/A
2:20 PM57 °FSprinkles. Broken clouds.9 mph88%29.71 "HgN/A
1:20 PM63 °FSprinkles. Partly sunny.14 mph77%29.68 "HgN/A
12:20 PM63 °FPartly sunny.14 mph83%29.68 "HgN/A
11:20 AM61 °FPartly sunny.8 mph83%29.68 "HgN/A
10:20 AM59 °FPartly sunny.8 mph88%29.65 "HgN/A
9:50 AM57 °FMostly cloudy.9 mph94%29.65 "Hg5 mi
9:20 AM57 °FDrizzle. Mostly cloudy.13 mph94%29.65 "Hg3 mi
8:20 AM57 °FDrizzle. Mostly cloudy.13 mph94%29.65 "Hg4 mi
7:20 AM57 °FLight rain. Mostly cloudy.16 mph94%29.62 "Hg5 mi
6:20 AM57 °FRain. Fog.20 mph94%29.62 "Hg2 mi
5:20 AM57 °FRain. Fog.16 mph94%29.59 "Hg2 mi
4:20 AM57 °FRain. Fog.21 mph94%29.59 "Hg2 mi
3:20 AM57 °FRain. Fog.17 mph94%29.59 "Hg2 mi
2:20 AM57 °FRain. Fog.7 mph100%29.59 "Hg2 mi
1:20 AM57 °FLight rain. Fog.3 mph100%29.59 "Hg3 mi
12:20 AM57 °FRain. Fog.10 mph100%29.62 "Hg2 mi
11:20 PM
Sun, May 29
57 °FThunderstorms. Mostly cloudy.10 mph100%29.62 "Hg3 mi
10:20 PM57 °FThunderstorms. Passing clouds.10 mph94%29.62 "Hg2 mi
Weather by CustomWeather, © 2016

See weather overviewHow to use our weather pages